Regional Weather Roundup
Issued by NWS

Home | Current Version | Previous Version | Text Only | Print | Product List | Glossary Off
Versions: 1 2 3 4 5 6 7 8 9 10 11 12 13 14 15 16 17 18 19 20 21 22 23 24 25 26 27 28 29 30 31 32 33 34 35 36 37 38 39 40 41 42 43 44 45 46 47 48 49 50

000
ASUS45 KBOU 020407
RWRCO

WEATHER ROUNDUP FOR COLORADO
NATIONAL WEATHER SERVICE DENVER/BOULDER CO
1000 PM MDT MON JUN 01 2015

NOTE: "FAIR" INDICATES FEW OR NO CLOUDS BELOW 12000 FEET WITH NO
SIGNIFICANT WEATHER AND/OR OBSTRUCTIONS TO VISIBILITY.

COZ001>005-013-030-031-020500-
...NORTHWEST COLORADO...

CITY           SKY/WX    TMP DP  RH WIND       PRES   REMARKS
CRAIG          PTCLDY    54  45  71 NW3       30.00R
HAYDEN         PTCLDY    59  45  58 SE9       30.03R
MEEKER         PTCLDY    64  38  38 VRB5      30.03R
MOUNT WERNER   NOT AVBL
STEAMBOAT SPGS PTCLDY    60  41  49 CALM      30.06R
WALDEN         CLOUDY    50  37  62 CALM      30.17R
$$

COZ006>008-011-020500-
...WEST CENTRAL VALLEYS...

CITY           SKY/WX    TMP DP  RH WIND       PRES   REMARKS
GRAND JUNCTION PTCLDY    66  32  28 NE3       29.90R
MONTROSE       CLEAR     70  35  27 S10       30.02R
EAGLE          PTCLDY    73  48  40 CALM      30.10R
RIFLE          PTCLDY    79  31  17 SW10G26   29.97R
DELTA          CLEAR     76  26  15 CALM      29.96R
NUCLA          CLEAR     72  18  13 S7        30.06R
$$

COZ017>023-064>068-020500-
...SOUTHWEST COLORADO...

CITY           SKY/WX    TMP DP  RH WIND       PRES   REMARKS
DURANGO        MOCLDY    68  34  28 SW3       30.13R
CORTEZ         CLEAR     67  21  17 S13       30.07R
PAGOSA SPRINGS MOCLDY    67  33  28 CALM      30.24R
TELLURIDE      PTCLDY    60  31  33 SE8       30.32R
WOLF CREEK PAS NOT AVBL
$$

COZ009-010-012-014-032>034-037-058>063-020500-
...CENTRAL COLORADO...

CITY           SKY/WX    TMP DP  RH WIND       PRES   REMARKS
ASPEN          PTCLDY    62  36  37 SE10      30.17R
BUENA VISTA    PTCLDY    57  35  43 N6        30.24S
COPPER MTN     PTCLDY    50  28  43 SW17      30.49R
BERTHOUD PASS  FAIR      43  34  70 SE6       30.54R
COTTONWOOD PAS NOT AVBL
GUNNISON       PTCLDY    57  39  51 N8        30.24S
KREMMLING      PTCLDY    54  43  66 CALM      30.17R
LEADVILLE      PTCLDY    49  30  48 SE5       30.34R
MONARCH PASS   PTCLDY    45  32  61 SW13      30.61R
SALIDA         PTCLDY    61  37  41 W8        30.29R
SUNLIGHT       PTCLDY    54  30  40 CALM      30.40R
WILKERSON PASS PTCLDY    46  32  57 SW8       30.48R
$$

COZ069>075-020500-
...SAN LUIS VALLEY/SANGRE DE CRISTO MOUNTAINS...

CITY           SKY/WX    TMP DP  RH WIND       PRES   REMARKS
ALAMOSA        PTCLDY    55  42  61 W5        30.23R
LA VETA PASS   PTCLDY   N/A N/A N/A MISG      30.42S
SAGUACHE       PTCLDY    52  41  66 N8        30.26R
$$

COZ035-036-038>040-020500-
...NORTHERN COLORADO FRONT RANGE...

CITY           SKY/WX    TMP DP  RH WIND       PRES   REMARKS
DENVER INTL AP MOCLDY    64  46  52 S12       30.02R
DMNS CITY PARK NOT AVBL
AURORA         PTCLDY    60  47  62 S9        30.05S
FRONT RANGE AP NOT AVBL
ERIE MUNI ARPT PTCLDY    62  50  64 CALM      30.00S
BOULDER MUN AP PTCLDY    68  45  42 SW6       30.01S
CENTENNIAL     PTCLDY    64  46  52 SE12      30.06R
BROOMFIELD     PTCLDY    63  50  63 W8        30.05
FORT COLLINS   MOCLDY    66  50  55 NE5       30.02R
LONGMONT       MOCLDY    63  49  59 CALM      30.02R
$$

COZ041-046-047-076>085-087-088-020500-
...PIKES PEAK/PALMER DIVIDE AND SOUTHERN FOOTHILLS...

CITY           SKY/WX    TMP DP  RH WIND       PRES   REMARKS
COLO. SPRINGS  CLOUDY    61  48  62 S12       30.15R
A. F. ACADEMY  MOCLDY    61  47  61 S2        30.15R
ELLICOTT       CLOUDY   N/A N/A N/A SW10      30.13R
FALCON         CLOUDY    58  48  69 SW7       30.19R
FORT CARSON    NOT AVBL
LIMON          CLOUDY    64  60  87 SE9       30.05R
MONUMENT HILL  MOCLDY    55  46  71 MISG      30.18R
TRINIDAD       PTCLDY    63  48  58 SW10      30.14R
$$

COZ042>045-048>051-090-091-020500-
...NORTHEAST COLORADO...

CITY           SKY/WX    TMP DP  RH WIND       PRES   REMARKS
GREELEY ARPT   MOCLDY    63  54  72 N7        29.99R
AKRON          MOCLDY    63  55  75 E7        30.01S
BURLINGTON     CLOUDY    70  64  81 SE16      30.02S
WRAY           CLOUDY    73  62  68 S13       29.96F
STERLING       MOCLDY    64  54  68 E9        29.96S
HOLYOKE        NOT AVBL
FORT MORGAN    MOCLDY    62 -12   4 E12       29.99F
$$

COZ086-089-092>099-020500-
...SOUTHEAST COLORADO...

CITY           SKY/WX    TMP DP  RH WIND       PRES   REMARKS
PUEBLO         CLOUDY    64  56  75 CALM      30.07R
LA JUNTA       CLOUDY    70  52  52 MISG      30.05F
LAMAR          CLOUDY    70  55  59 W7        30.02S
SPRINGFIELD      N/A     62  54  74 SW7       30.07R
$$



USA.gov is the U.S. government's official web portal to all federal, state and local government web resources and services.